Theta_e
313 312 311 311 312 313 313 314 315 317 318 319 319 319 319 320 320 315 308 317 321 328 325 314 312 310 308 306 308 307 298 298 302 301 305 305 305 306 312 314 317 322 317 321 327
312 312 311 311 312 312 312 313 313 315 317 318 318 318 319 319 312 309 320 325 326 326 312 311 308 307 303 303 306 302 295 299 305 303 302 306 305 305 306 310 315 319 324 325 324
312 312 311 311 310 311 311 311 312 313 315 317 318 318 318 317 306 304 324 323 325 323 317 315 311 305 303 302 303 302 298 302 304 307 307 305 304 304 305 302 313 317 322 320 321
313 312 312 311 311 310 311 311 311 312 314 316 317 317 319 311 286 309 323 323 324 315 316 311 306 301 300 300 304 299 303 303 306 306 306 303 304 303 304 304 317 323 323 319 319
314 312 312 311 311 310 310 310 311 312 314 315 317 317 310 301 302 313 320 319 315 310 311 308 302 301 299 300 302 300 301 303 303 304 304 306 302 303 306 317 322 322 321 318 318
315 313 312 312 310 310 309 310 311 312 313 314 316 316 304 292 308 313 313 313 312 310 307 309 305 303 301 300 300 302 302 302 303 302 303 304 303 303 306 317 305 306 304 303 302
315 314 312 311 311 310 309 309 311 312 312 313 315 311 302 297 309 308 308 307 310 311 307 311 310 302 302 300 303 302 298 298 300 301 300 303 298 295 295 299 297 298 299 301 301
315 314 313 311 311 310 309 308 310 311 312 313 314 304 296 308 308 308 307 306 309 313 311 311 312 305 303 305 302 298 296 292 297 299 300 303 294 293 295 297 295 297 298 300 301
314 314 313 311 310 310 309 308 310 311 312 312 302 298 293 309 304 306 307 303 306 311 311 311 309 301 301 299 297 297 288 290 292 298 296 297 290 293 295 296 294 295 297 298 298
313 313 312 311 310 310 309 308 310 309 307 307 306 294 296 297 303 306 306 306 304 306 304 306 301 294 292 293 288 293 292 292 290 293 292 289 288 291 295 296 294 294 294 295 295
313 313 312 311 310 308 303 298 292 291 295 290 291 293 297 301 304 303 306 304 305 301 294 301 293 289 291 294 296 298 296 294 294 294 291 288 288 289 292 294 294 293 294 293 293
313 313 312 310 309 306 301 294 293 294 286 294 296 296 299 301 295 299 306 298 298 293 296 296 291 293 295 296 295 297 296 295 299 297 292 289 287 289 290 290 291 293 293 292 293
313 313 311 310 308 302 298 297 302 298 286 289 294 294 295 298 293 295 301 298 295 292 293 288 291 296 294 293 293 294 295 293 295 298 296 293 291 289 289 290 291 291 292 292 291
313 312 312 308 299 296 294 301 301 296 272 280 288 292 296 297 291 300 302 298 294 291 291 291 294 294 292 292 294 290 296 296 295 294 287 294 284 291 287 287 288 289 289 290 291
312 312 309 304 296 293 298 302 299 289 261 280 289 299 298 291 292 293 300 297 290 291 291 287 289 291 290 292 295 292 296 297 296 293 290 290 287 289 290 287 286 289 290 290 291
311 310 307 299 295 296 300 298 291 271 261 279 289 289 289 291 291 294 294 298 296 293 292 289 293 292 293 295 296 298 295 294 293 291 284 289 289 284 288 290 288 290 290 291 291
309 307 302 301 292 299 297 288 271 264 277 275 280 286 285 287 288 289 288 288 284 281 283 288 288 290 293 291 296 296 291 282 281 281 280 286 288 285 291 294 290 289 289 291 291
306 303 300 299 297 297 290 277 263 264 270 281 282 283 280 286 286 288 287 283 289 285 279 282 280 289 292 292 291 293 292 283 276 278 279 286 283 284 286 292 291 292 291 291 290
303 294 293 295 298 294 283 266 266 270 282 281 280 279 279 285 286 287 287 285 289 291 282 282 282 289 290 292 295 292 289 290 282 279 280 283 280 284 285 286 288 288 288 288 288
293 291 291 296 296 288 276 273 272 284 285 285 274 280 277 281 283 283 284 287 288 292 293 287 281 287 288 292 294 292 294 285 282 275 275 278 277 279 281 283 286 286 287 288 288
290 283 292 295 290 281 269 267 281 284 286 284 276 278 281 281 284 282 282 287 290 291 293 290 285 286 287 284 287 289 287 287 286 283 277 274 278 283 284 285 285 286 287 287 287
286 276 292 291 277 262 268 280 285 283 286 286 286 284 281 282 282 283 282 287 292 291 288 291 287 281 282 284 287 289 286 287 280 278 280 280 278 284 287 287 287 286 287 288 288
280 282 290 289 270 265 268 277 282 281 282 282 283 284 284 282 281 284 284 290 291 290 288 290 285 278 281 284 286 284 286 287 286 284 280 277 278 283 287 285 286 286 287 287 286
282 273 278 279 277 275 270 268 272 282 283 283 283 283 283 283 286 283 283 288 290 290 292 290 283 281 273 278 281 282 284 285 284 278 279 280 278 279 282 283 284 285 286 287 286
280 274 278 269 272 274 276 270 268 272 282 282 281 281 280 279 280 280 285 287 289 290 289 286 271 280 280 281 281 283 283 284 281 282 279 281 279 281 282 284 284 285 286 286 285
278 277 279 278 280 277 278 276 275 275 280 278 279 281 282 277 280 278 280 283 282 288 286 287 278 278 277 281 284 283 286 285 284 282 280 279 279 282 283 283 282 284 285 285 285
283 284 281 277 279 275 275 278 280 282 282 282 281 279 280 280 283 283 282 283 284 283 283 283 281 277 275 276 277 278 278 282 282 282 281 278 282 282 280 283 283 283 284 284 284
Wind_Speed
5 3 4 6 7 6 7 7 9 11 10 9 11 11 12 13 14 4 5 2 5 11 9 7 4 6 2 2 1 3 4 1 2 2 1 1 4 2 2 6 5 4 2 1 8
3 3 3 4 5 5 6 8 9 10 11 10 11 12 13 13 3 6 4 4 6 9 5 4 4 6 3 2 1 4 3 6 2 2 2 1 2 5 4 3 5 8 9 8 7
4 4 3 4 5 6 5 7 9 9 10 10 12 12 13 10 3 4 0 4 6 6 3 1 3 1 1 0 1 3 5 3 3 2 4 3 3 2 9 2 5 11 10 5 6
6 4 4 4 5 6 8 8 8 10 10 11 10 12 13 2 6 2 2 6 8 3 3 3 2 3 3 3 1 4 4 3 4 3 2 2 2 4 5 3 9 12 9 4 8
7 6 5 4 5 6 8 10 9 8 10 11 9 9 5 1 6 5 6 7 4 2 3 2 4 4 4 3 1 3 3 1 2 4 3 5 4 6 8 6 13 11 9 7 6
9 8 6 5 5 6 7 9 10 8 9 10 9 7 2 3 4 5 7 5 5 4 4 0 3 1 3 1 3 5 3 2 3 4 3 7 4 5 7 6 14 12 12 11 10
11 9 8 7 6 6 7 7 10 9 9 9 8 2 0 10 2 7 6 4 5 3 3 2 3 2 3 2 3 3 4 2 3 2 2 1 7 6 7 12 14 13 11 12 11
11 10 9 7 6 6 7 8 8 10 9 8 8 1 6 3 5 6 2 5 5 3 3 5 3 1 1 1 3 4 5 5 3 5 5 0 3 7 8 16 11 11 9 11 11
11 11 10 7 6 6 6 9 10 10 9 6 2 1 8 8 3 4 4 4 5 3 3 4 1 2 1 9 1 3 5 4 1 5 1 6 4 9 6 12 10 8 8 9 9
11 11 9 7 7 5 7 9 8 6 3 1 2 2 4 2 5 3 2 2 2 2 0 2 3 3 1 8 12 8 6 3 5 4 12 13 8 6 9 11 9 7 7 8 9
12 12 11 8 6 3 4 3 5 3 2 6 4 3 3 7 4 2 1 4 1 1 5 2 4 14 9 8 4 14 6 8 3 4 9 7 10 7 6 9 9 6 7 7 7
13 12 10 7 4 2 3 3 1 1 6 4 7 5 4 1 4 4 4 5 4 4 3 3 15 4 5 3 3 14 17 11 3 7 11 7 8 6 6 4 4 5 7 7 5
13 11 9 6 4 4 3 2 1 1 1 5 2 3 4 3 4 5 6 4 3 5 6 6 1 9 8 5 7 8 17 14 11 5 7 5 3 2 3 5 6 5 5 6 6
13 11 9 7 4 1 2 4 4 2 6 5 2 3 1 3 6 8 5 4 3 8 6 7 4 9 6 12 8 9 6 13 17 16 4 9 4 6 4 4 3 5 5 5 5
12 11 9 3 5 2 1 4 3 5 5 5 1 0 2 4 4 1 2 2 6 5 6 5 5 6 12 17 8 5 9 15 16 11 8 11 3 4 12 6 6 6 7 6 5
11 11 9 4 3 2 4 4 5 9 6 4 3 3 4 2 4 6 2 3 3 2 5 7 2 6 7 4 8 7 10 9 6 2 6 12 10 5 12 18 9 10 10 9 7
11 10 6 2 1 3 3 5 7 5 5 7 3 4 3 3 5 3 2 6 5 5 4 2 5 2 4 5 4 7 12 3 5 5 5 5 9 6 12 9 15 15 11 11 10
11 8 5 3 1 2 4 7 5 4 5 4 4 7 6 5 5 5 3 7 5 2 3 5 6 8 5 6 7 15 12 6 8 6 5 2 9 4 3 7 13 12 13 10 9
8 3 3 4 3 2 7 5 8 6 2 6 7 3 4 4 7 7 6 8 7 7 5 7 4 2 2 2 5 7 10 4 6 5 4 4 4 2 3 10 13 14 12 10 10
3 3 2 6 4 5 7 4 2 1 4 2 3 2 3 3 4 7 7 3 4 5 2 1 3 2 2 2 3 3 8 3 2 8 5 2 4 5 10 12 14 15 14 12 9
4 4 3 4 4 6 4 5 3 4 4 3 3 4 4 5 3 1 3 2 1 6 5 2 3 3 4 5 9 3 5 5 2 1 5 4 7 6 17 17 17 14 12 12 10
3 3 3 3 5 1 3 2 3 4 4 5 3 2 3 4 4 2 2 1 4 1 5 5 1 1 3 2 1 4 6 4 3 4 2 1 3 3 10 14 14 12 12 10 10
3 1 3 4 2 2 5 3 3 2 3 2 2 1 1 4 4 1 2 5 3 3 3 4 3 4 0 3 2 3 6 6 7 4 2 3 3 6 11 11 11 15 12 11 10
4 2 5 5 0 5 3 2 4 4 3 2 2 2 3 3 2 1 2 1 2 1 4 2 1 1 4 1 1 4 4 5 6 5 6 5 3 1 9 14 13 12 12 11 11
3 4 3 2 3 2 3 3 2 3 2 4 1 3 5 3 5 4 5 3 1 3 2 2 4 3 2 2 3 3 5 7 4 5 7 7 9 14 17 18 15 12 11 12 11
5 4 2 3 1 2 2 2 4 4 1 4 2 4 4 2 4 3 5 4 1 2 1 1 2 1 2 5 3 3 4 3 5 5 5 6 3 4 7 8 10 14 14 13 11
1 2 3 2 2 3 4 4 2 2 1 2 2 2 4 2 3 5 5 4 4 2 2 1 4 3 2 3 2 3 4 3 2 3 8 6 7 10 7 14 16 14 13 12 11
Wind_Direction
310 308 336 345 339 345 343 345 347 351 344 334 328 328 328 331 321 295 257 273 296 318 326 301 333 346 4 344 64 114 61 154 247 190 244 279 110 48 43 87 47 22 64 83 115
275 287 300 335 342 334 333 330 337 345 347 340 329 327 329 336 297 257 257 283 315 320 328 13 340 357 355 335 355 100 121 221 194 216 204 84 96 135 92 79 62 83 77 71 90
264 265 271 307 318 318 324 337 331 335 340 334 327 327 329 334 282 244 108 316 325 338 297 314 288 74 305 325 192 161 182 233 262 206 239 123 113 61 130 89 183 153 138 92 99
243 248 227 277 303 316 315 321 326 327 332 332 330 327 326 323 226 340 344 325 322 309 307 234 219 140 179 209 74 137 262 248 329 338 337 53 62 68 4 22 124 128 127 82 106
244 226 228 234 276 304 313 319 323 323 328 335 338 339 357 311 263 311 325 317 337 7 258 245 173 160 180 199 143 162 223 4 357 41 91 114 61 93 26 40 96 102 85 90 94
237 212 220 220 252 282 308 319 318 320 332 333 340 343 43 259 282 336 327 325 16 7 328 242 281 247 186 226 184 172 208 149 349 27 52 113 69 66 9 81 67 72 77 67 54
225 212 208 214 234 263 295 303 317 309 321 328 334 350 222 236 11 335 344 339 324 344 327 326 316 248 153 141 249 164 113 59 44 328 75 48 33 45 320 90 85 73 71 68 53
211 205 201 217 224 250 284 300 307 305 304 322 328 13 254 266 303 298 341 309 308 251 232 278 285 261 137 259 3 135 71 136 358 343 40 179 122 349 324 99 77 81 71 71 50
195 192 197 210 227 249 279 294 300 300 296 308 13 138 267 312 290 259 181 249 311 280 264 279 107 158 148 149 303 299 167 150 193 27 79 44 95 1 37 92 84 58 61 69 51
184 184 189 205 227 249 288 292 291 324 334 313 257 331 290 353 305 307 189 221 272 312 249 156 61 152 129 183 193 196 142 130 144 7 64 80 89 47 40 79 87 72 53 52 59
174 175 183 199 213 258 360 16 16 339 19 195 219 247 324 305 267 283 155 121 1 133 171 211 169 207 180 222 149 182 197 104 90 155 73 71 85 65 43 66 76 74 78 65 43
162 170 179 183 189 71 80 71 118 214 313 246 255 285 277 262 303 294 129 162 185 179 177 160 229 178 160 222 185 169 191 200 90 69 86 92 71 63 59 56 74 89 77 67 53
155 159 159 155 115 54 91 65 54 338 295 297 203 235 241 157 245 264 164 178 200 175 197 216 281 170 186 188 192 190 186 175 180 136 40 111 32 104 55 90 81 65 82 75 63
148 148 143 141 65 145 71 2 350 87 63 291 323 312 300 172 277 216 200 163 235 202 161 240 259 191 174 214 192 203 172 149 144 164 175 165 218 235 173 141 116 113 87 92 83
139 132 133 105 152 99 82 6 8 52 29 283 314 340 340 195 320 322 203 79 198 186 162 221 189 186 211 206 182 219 141 152 164 158 126 192 206 222 163 197 196 168 139 122 96
124 115 113 48 47 352 18 31 46 45 263 347 322 10 335 290 283 322 192 95 179 353 310 224 189 180 195 162 181 147 84 47 52 88 211 183 194 208 191 202 160 163 154 141 121
97 80 66 64 101 352 39 49 37 120 306 311 322 347 343 250 241 220 215 171 176 169 203 234 207 251 149 139 154 142 139 131 194 205 219 176 202 245 203 191 175 160 161 149 132
100 78 43 62 359 48 54 53 85 240 244 314 306 291 229 182 225 217 206 194 225 174 139 189 196 177 180 202 193 190 174 161 185 183 149 111 211 238 285 156 150 154 144 137 127
93 21 49 342 347 61 72 61 206 210 275 324 306 309 297 246 233 182 208 199 179 194 201 179 250 355 202 177 166 174 201 98 88 1 83 185 319 299 106 126 137 143 146 145 140
83 69 18 318 357 58 76 236 249 333 325 240 274 312 286 305 239 174 166 169 152 193 146 212 219 237 214 129 57 212 130 140 278 157 193 220 254 227 169 164 157 161 160 153 144
54 61 279 339 57 49 121 228 285 271 230 268 278 292 291 301 274 142 154 132 219 169 155 195 209 174 124 191 169 183 162 139 88 315 153 147 246 199 181 178 169 164 159 154 152
89 55 313 38 52 329 131 189 287 266 224 261 266 292 268 295 282 161 133 67 175 237 186 181 192 241 175 317 89 158 152 140 179 182 31 56 272 355 186 169 161 159 154 152 155
96 172 327 84 120 305 315 284 256 274 271 292 278 308 280 281 293 29 84 76 36 186 192 144 220 137 336 9 17 207 162 144 121 33 165 116 254 348 150 151 165 158 158 150 149
87 44 332 50 351 134 135 285 306 316 273 342 336 297 304 252 314 352 92 158 88 338 115 232 88 180 189 158 17 180 165 153 141 130 156 244 169 196 166 167 163 158 153 152 159
52 247 195 225 311 122 117 138 335 339 318 354 59 350 272 317 352 12 17 127 217 71 26 83 131 119 354 79 300 212 157 147 128 157 154 205 190 197 186 175 166 151 149 154 165
134 134 8 127 324 87 82 217 188 283 18 328 55 340 12 75 22 345 339 21 357 169 61 127 116 109 61 3 265 109 99 118 124 120 83 117 255 177 131 118 150 164 162 169 172
165 8 109 291 132 84 218 177 236 186 167 63 296 23 28 345 294 268 280 288 279 299 335 172 179 142 101 328 353 60 225 204 165 165 143 167 209 152 146 174 176 167 168 170 172